Regional Weather Roundup
Issued by NWS

Home | Current Version | Previous Version | Graphics & Text | Print | Product List | Glossary On
Versions: 1 2 3 4 5 6 7 8 9 10 11 12 13 14 15 16 17 18 19 20 21 22 23 24 25 26 27 28 29 30 31 32 33 34 35 36 37 38 39 40 41 42 43 44 45 46 47 48 49 50
000
ASUS45 KBOI 271210
RWRID
WEATHER ROUNDUP FOR IDAHO
NATIONAL WEATHER SERVICE BOISE ID
500 AM MST FRI FEB 27 2015

NOTE: "FAIR" INDICATES FEW OR NO CLOUDS BELOW 12000 FEET
WITH NO SIGNIFICANT WEATHER AND/OR OBSTRUCTIONS TO VISIBILITY

IDZ012-014-271300-
SOUTHWEST IDAHO


CITY           SKY/WX    TMP DP  RH WIND       PRES   REMARKS
BOISE          CLOUDY    37  30  75 SE7       29.80F WCI  32
CALDWELL       CLOUDY    36  27  69 N3        29.82F
MOUNTAIN HOME  CLOUDY    33  30  89 E8        29.80F WCI  26
$$

IDZ016-017-271300-
SOUTHCENTRAL IDAHO


CITY           SKY/WX    TMP DP  RH WIND       PRES   REMARKS
BURLEY         CLOUDY    33  30  88 W5        29.79F WCI  29
JEROME         CLOUDY    29  26  89 NE6       29.81F WCI  23
TWIN FALLS     CLOUDY    35  28  75 S9        29.80F WCI  28
$$

IDZ019>023-271300-
SOUTHEAST IDAHO


CITY           SKY/WX    TMP DP  RH WIND       PRES   REMARKS
IDAHO FALLS    CLOUDY    25  13  60 NE6       29.81F WCI  18
POCATELLO      CLOUDY    29  28  96 N3        29.82F
REXBURG        CLOUDY    20   8  60 E10       29.82F WCI   9
$$

IDZ006-010-011-018-031-032-271300-
CENTRAL IDAHO MOUNTAINS


CITY           SKY/WX    TMP DP  RH WIND       PRES   REMARKS
MCCALL         MOCLDY    27  24  89 CALM      29.75F
HAILEY         CLOUDY    30  27  86 SE6       29.80S WCI  24
STANLEY          N/A     22  16  78 CALM      29.75S
SALMON         CLOUDY    28  21  74 CALM      29.83S
CHALLIS        CLOUDY    27  25  92 CALM      29.78F
$$

IDZ002-004-006-007-026-271300-
NORTHERN IDAHO


CITY           SKY/WX    TMP DP  RH WIND       PRES   REMARKS
LEWISTON       PTCLDY    34  33  96 CALM      29.83F
LOWELL           N/A     35  31  85 CALM      29.89S
COEUR D`ALENE  PTCLDY    28  25  86 NE6       29.84S WCI  22
MULLAN PASS    FLURRIES  18  16  92 S7        29.74F WCI   9
$$


USA.gov is the U.S. government's official web portal to all federal, state and local government web resources and services.